COSMOS 1275 DEB, 42150

Orbit data source: Space-Track

COSMOS 1275 DEB, 42150 is space debris in LEO originally from a launch on Thu, 04 Jun 1981 UTC launched from the Plesetsk Missile And Space Complex (PKMTR). Debris objects in space refer to the collection of defunct objects orbiting the Earth. Examples of debris include non-operational satellites, rocket bodies, and fragments generated from explosions, collisions, or faulty payload assembly.

Loading next visibility...
Identifier
42150, 1981-053RN
Orbit
LEO
Country
Flag of CISCIS
Related business
Manufacturer
Unknown
Mission
Spacecraft
Bus & Motor
Unknown
Mass
Unknown
Launch date (UTC)
1981-06-04 (45 years ago)
Launch vehicle
Unknown
Launch site
Plesetsk Missile And Space Complex (PKMTR)
Object type
Payload
Rocket body
Debris
Shape & HBR
Unknown shape, 0.1 m
Radar Cross Section
Small (<0.1 m²)

Expand to show TLE details & history
Last TLE update: 3 months ago

TLE from 3 months ago
0 COSMOS 1275 DEB
1 42150U 81053RN  26009.74276044  .00001134  00000-0  14898-2 0  9991
2 42150  83.0652 190.2919 0219254 284.7842  72.9102 13.51247242552001
Epoch: 2026-01-09T17:49Z
TLE epoch observation values (Epoch: 2026-01-09T17:49:34.502Z)
Latitude
0.00002°
Longitude
173.62001°
Altitude
1,025.862 km
Speed
7.361 km/s
True Right ascension
12h 41m 10s
True Declination
0° 00' 00"
Sunlit
Object was in daylight at epoch
Visualization orbit readout
Latitude
Unknown
Longitude
Unknown
Altitude
Unknown
Speed
Unknown
Apparent Right ascension
Unknown
Apparent Declination
Unknown
Sunlit
N/A
Visualization observer readout
Local Sidereal Time
01:33:46
Azimuth
Unknown
Elevation
Unknown
Doppler factor
Unknown
Orbital elements
Apogee altitude
1,228.039 km
Perigee altitude
901.658 km
Semi-major axis
7,442.985 km
Eccentricity
0.02193
Inclination
83.0652°
RAAN
190.2919°
Arg. of periapsis
284.7842°
True anomaly
75.3305°
Mean anomaly
72.9102°
Eccentric anomaly
74.11848°
Mean motion
3.38004 °/min
Orbital period
106.51 mins
BSTAR
0.0014898
Loading maneuver chart data...
Computing Atmospheric mass density...

Documentation

Showing up to 5 results
|